Location: Terre Du Lac
(37.9120°N, 90.6250°W)
Time: 07:52:49
(UTC-05:00)

Hubble Space Telescope - Visible Passes

Search period start: 19 October 2017 00:00
Search period end: 29 October 2017 00:00
Orbit: 537 x 541 km, 28.5° (Epoch: 19 October)

Date Brightness Start Highest point End Pass type
(mag) Time Alt. Az. Time Alt. Az. Time Alt. Az.
20 Oct 3.1 19:27:15 10° S 19:28:03 10° SSE 19:28:51 10° SSE visible
21 Oct 3.1 19:15:57 10° S 19:17:45 13° SSE 19:19:32 10° SE visible
22 Oct 3.0 19:05:08 10° SSW 19:07:26 15° SSE 19:09:44 10° SE visible
22 Oct 3.5 20:44:51 10° SW 20:45:28 13° SW 20:45:28 13° SW visible
23 Oct 2.9 18:54:31 10° SSW 18:57:09 16° SSE 18:59:47 10° SE visible
23 Oct 3.2 20:34:33 10° SW 20:35:52 16° SW 20:35:52 16° SW visible
24 Oct 2.8 18:43:59 10° SW 18:46:51 18° S 18:49:43 10° SE visible
24 Oct 2.9 20:24:18 10° SW 20:26:15 19° SSW 20:26:15 19° SSW visible
25 Oct 2.8 18:33:32 10° SW 18:36:34 20° S 18:39:36 10° SE visible
25 Oct 2.7 20:14:05 10° SW 20:16:38 20° SSW 20:16:38 20° SSW visible
26 Oct 2.7 20:03:55 10° SW 20:06:56 20° S 20:07:03 20° S visible
27 Oct 2.8 19:53:48 10° SW 19:56:39 18° S 19:57:30 17° S visible
28 Oct 3.0 19:43:44 10° SW 19:46:21 16° SSW 19:48:00 13° SSE visible
